St. George, UT

12:53 AM MST on January 17, 2018 (GMT -0700)
Saint George Municipal

Weather History for KSGU - October, 2013

Change the Weather History Date:

Tuesday, October 15, 2013

  Actual Average Record
Temperature  
Mean Temperature 56 °F -  
Max Temperature 68 °F 80 °F 92 °F (1961)
Min Temperature 44 °F 45 °F 31 °F (1981)
Degree Days  
Heating Degree Days 9    
Growing Degree Days 6 (Base 50)    
Moisture  
Dew Point 26 °F    
Average Humidity 33    
Maximum Humidity 53    
Minimum Humidity 21    
Precipitation  
Precipitation 0.00 in - - ()
Sea Level Pressure  
Sea Level Pressure 30.10 in    
Wind  
Wind Speed 6 mph (NNE)    
Max Wind Speed 24 mph    
Max Gust Speed 29 mph    
Visibility 10 miles    
Events      
Averages and records for this station are not official NWS values.
T = Trace of Precipitation, MM = Missing Value Source: NWS Daily Summary

Daily Weather History Graph

Daily Weather History Graph

Search for Another Location

Airport or City:

Trip Planner

Search our weather history database for the weather conditions in past years. The results will help you decide how hot, cold, wet, or windy it might be!

Date:

Astronomy

Oct. 15, 2013 Rise Set
Actual Time 7:42 AM MDT 6:56 PM MDT
Civil Twilight 7:15 AM MDT 7:22 PM MDT
Nautical Twilight 6:45 AM MDT 7:53 PM MDT
Astronomical Twilight 6:15 AM MDT 8:23 PM MDT
Moon 5:00 PM MDT (10/15) 4:13 AM MDT (10/15)
Length of Visible Light 12h 07m
Length of Day
11h 14m
Waxing Gibbous, 88% of the Moon is Illuminated
Oct 15
Waxing Gibbous
Oct 18
Full
Oct 26
Last Quarter
Nov 3
New
Nov 9
First Quarter

Hourly Weather History & Observations

Time (MDT) Temp. Windchill Dew Point Humidity Pressure Visibility Wind Dir Wind Speed Gust Speed Precip Events Conditions
12:15 AM 57.2 °F - 26.6 °F 31% 30.11 in 10.0 mi North 9.2 mph - N/A   Clear
12:35 AM 57.2 °F - 26.6 °F 31% 30.11 in 10.0 mi NW 3.5 mph - N/A   Clear
12:55 AM 59.0 °F - 26.6 °F 29% 30.11 in 10.0 mi NW 5.8 mph - N/A   Clear
1:15 AM 57.2 °F - 24.8 °F 29% 30.11 in 10.0 mi NNW 5.8 mph - N/A   Clear
1:35 AM 55.4 °F - 26.6 °F 33% 30.12 in 10.0 mi North 8.1 mph - N/A   Clear
1:55 AM 55.4 °F - 26.6 °F 33% 30.12 in 10.0 mi NNE 9.2 mph - N/A   Clear
2:15 AM 55.4 °F - 26.6 °F 33% 30.11 in 10.0 mi NE 12.7 mph - N/A   Clear
2:35 AM 53.6 °F - 26.6 °F 35% 30.11 in 10.0 mi North 6.9 mph - N/A   Clear
2:55 AM 53.6 °F - 26.6 °F 35% 30.12 in 10.0 mi SE 3.5 mph - N/A   Clear
3:15 AM 51.8 °F - 26.6 °F 38% 30.11 in 10.0 mi Calm Calm - N/A   Clear
3:35 AM 50.0 °F - 26.6 °F 40% 30.11 in 10.0 mi East 3.5 mph - N/A   Clear
3:55 AM 51.8 °F - 26.6 °F 38% 30.11 in 10.0 mi SSE 4.6 mph - N/A   Clear
4:15 AM 51.8 °F - 26.6 °F 38% 30.10 in 10.0 mi ENE 6.9 mph - N/A   Clear
4:35 AM 51.8 °F - 26.6 °F 38% 30.10 in 10.0 mi Calm Calm - N/A   Clear
4:55 AM 48.2 °F - 26.6 °F 43% 30.10 in 10.0 mi North 3.5 mph - N/A   Clear
5:15 AM 48.2 °F - 28.4 °F 46% 30.10 in 10.0 mi Calm Calm - N/A   Clear
5:35 AM 48.2 °F - 26.6 °F 43% 30.10 in 10.0 mi Calm Calm - N/A   Clear
5:55 AM 48.2 °F - 26.6 °F 43% 30.10 in 10.0 mi Calm Calm - N/A   Clear
6:15 AM 46.4 °F - 26.6 °F 46% 30.10 in 10.0 mi Calm Calm - N/A   Clear
6:35 AM 46.4 °F - 26.6 °F 46% 30.10 in 10.0 mi Calm Calm - N/A   Clear
6:55 AM 50.0 °F - 28.4 °F 43% 30.11 in 10.0 mi ENE 6.9 mph - N/A   Clear
7:15 AM 46.4 °F - 26.6 °F 46% 30.11 in 10.0 mi Calm Calm - N/A   Clear
7:35 AM 46.4 °F 44.3 °F 26.6 °F 46% 30.11 in 10.0 mi SE 4.6 mph - N/A   Clear
7:55 AM 44.6 °F 43.1 °F 26.6 °F 49% 30.12 in 10.0 mi East 3.5 mph - N/A   Clear
8:15 AM 44.6 °F - 26.6 °F 49% 30.13 in 10.0 mi Calm Calm - N/A   Clear
8:35 AM 44.6 °F - 26.6 °F 49% 30.13 in 10.0 mi Calm Calm - N/A   Clear
8:55 AM 44.6 °F 42.2 °F 28.4 °F 53% 30.14 in 10.0 mi SW 4.6 mph - N/A   Clear
9:15 AM 46.4 °F - 28.4 °F 50% 30.14 in 10.0 mi Calm Calm - N/A   Clear
9:35 AM 48.2 °F - 28.4 °F 46% 30.14 in 10.0 mi Calm Calm - N/A   Partly Cloudy
9:55 AM 51.8 °F - 28.4 °F 41% 30.14 in 10.0 mi Calm Calm - N/A   Mostly Cloudy
10:15 AM 51.8 °F - 28.4 °F 41% 30.14 in 10.0 mi North 3.5 mph - N/A   Mostly Cloudy
10:35 AM 55.4 °F - 30.2 °F 38% 30.14 in 10.0 mi Calm Calm - N/A   Partly Cloudy
10:55 AM 55.4 °F - 28.4 °F 36% 30.13 in 10.0 mi Calm Calm - N/A   Clear
11:15 AM 55.4 °F - 28.4 °F 36% 30.13 in 10.0 mi West 5.8 mph - N/A   Clear
11:35 AM 57.2 °F - 28.4 °F 33% 30.13 in 10.0 mi WNW 3.5 mph - N/A   Clear
11:55 AM 59.0 °F - 30.2 °F 34% 30.12 in 10.0 mi Calm Calm - N/A   Clear
12:15 PM 60.8 °F - 28.4 °F 29% 30.11 in 10.0 mi Calm Calm - N/A   Clear
12:55 PM 60.8 °F - 28.4 °F 29% 30.10 in 10.0 mi WNW 3.5 mph - N/A   Clear
1:15 PM 62.6 °F - 26.6 °F 26% 30.09 in 10.0 mi West 5.8 mph - N/A   Clear
1:35 PM 62.6 °F - 26.6 °F 26% 30.08 in 10.0 mi WNW 3.5 mph - N/A   Clear
1:55 PM 64.4 °F - 26.6 °F 24% 30.07 in 10.0 mi WNW 3.5 mph - N/A   Clear
2:15 PM 64.4 °F - 26.6 °F 24% 30.06 in 10.0 mi West 6.9 mph - N/A   Clear
2:35 PM 64.4 °F - 24.8 °F 22% 30.06 in 10.0 mi WSW 4.6 mph - N/A   Clear
3:15 PM 64.4 °F - 26.6 °F 24% 30.04 in 10.0 mi WSW 4.6 mph - N/A   Clear
3:35 PM 68.0 °F - 26.6 °F 21% 30.04 in 10.0 mi Calm Calm - N/A   Clear
3:55 PM 66.2 °F - 26.6 °F 23% 30.04 in 10.0 mi West 4.6 mph - N/A   Clear
4:15 PM 66.2 °F - 26.6 °F 23% 30.03 in 10.0 mi ESE 5.8 mph - N/A   Clear
4:35 PM 66.2 °F - 26.6 °F 23% 30.04 in 10.0 mi Calm Calm - N/A   Clear
4:55 PM 68.0 °F - 26.6 °F 21% 30.02 in 10.0 mi NNE 11.5 mph - N/A   Mostly Cloudy
5:15 PM 66.2 °F - 26.6 °F 23% 30.04 in 10.0 mi NNE 16.1 mph 20.7 mph N/A   Mostly Cloudy
5:35 PM 66.2 °F - 26.6 °F 23% 30.04 in 10.0 mi NNE 13.8 mph 21.9 mph N/A   Partly Cloudy
5:55 PM 64.4 °F - 24.8 °F 22% 30.04 in 10.0 mi NE 16.1 mph 23.0 mph N/A   Clear
6:15 PM 64.4 °F - 24.8 °F 22% 30.04 in 10.0 mi NE 11.5 mph - N/A   Clear
6:35 PM 64.4 °F - 24.8 °F 22% 30.05 in 10.0 mi NE 16.1 mph 23.0 mph N/A   Scattered Clouds
6:55 PM 62.6 °F - 24.8 °F 24% 30.06 in 10.0 mi ENE 19.6 mph 24.2 mph N/A   Partly Cloudy
7:15 PM 62.6 °F - 24.8 °F 24% 30.07 in 10.0 mi NE 15.0 mph - N/A   Clear
7:35 PM 60.8 °F - 24.8 °F 25% 30.07 in 10.0 mi NE 18.4 mph - N/A   Clear
7:55 PM 60.8 °F - 23.0 °F 23% 30.08 in 10.0 mi NE 16.1 mph 23.0 mph N/A   Clear
8:15 PM 60.8 °F - 23.0 °F 23% 30.09 in 10.0 mi NE 21.9 mph 26.5 mph N/A   Clear
8:35 PM 59.0 °F - 24.8 °F 27% 30.09 in 10.0 mi NE 21.9 mph 26.5 mph N/A   Clear
8:55 PM 59.0 °F - 24.8 °F 27% 30.09 in 10.0 mi NE 18.4 mph 24.2 mph N/A   Scattered Clouds
9:15 PM 59.0 °F - 24.8 °F 27% 30.10 in 10.0 mi NE 24.2 mph 28.8 mph N/A   Scattered Clouds
9:35 PM 57.2 °F - 24.8 °F 29% 30.10 in 10.0 mi NE 18.4 mph 27.6 mph N/A   Clear
9:55 PM 57.2 °F - 24.8 °F 29% 30.10 in 10.0 mi NE 16.1 mph 26.5 mph N/A   Clear
10:15 PM 57.2 °F - 24.8 °F 29% 30.11 in 10.0 mi NE 21.9 mph 27.6 mph N/A   Clear
10:35 PM 57.2 °F - 24.8 °F 29% 30.12 in 10.0 mi NE 17.3 mph 23.0 mph N/A   Clear
10:55 PM 57.2 °F - 24.8 °F 29% 30.12 in 10.0 mi NE 9.2 mph - N/A   Clear
11:15 PM 55.4 °F - 24.8 °F 31% 30.13 in 10.0 mi North 5.8 mph - N/A   Clear
11:35 PM 55.4 °F - 24.8 °F 31% 30.13 in 10.0 mi North 6.9 mph - N/A   Clear
11:55 PM 55.4 °F - 24.8 °F 31% 30.13 in 10.0 mi NE 15.0 mph - N/A   Clear